{"data":{"norad_id":67924,"epoch":"2026-09-19T06:05:18.444480Z","epoch_age_seconds":170901,"freshness":"FRESH","line1":"1 67924U 26036W   26262.25368570  .00009921  00000+0  36954-3 0  9999","line2":"2 67924  43.0011 232.2522 0001277 273.3285  86.7420 15.27581770 33325","mean_motion":15.2758177,"eccentricity":0.0001277,"inclination_deg":43.0011,"raan_deg":232.2522,"arg_perigee_deg":273.3285,"mean_anomaly_deg":86.742,"bstar":0.00036954,"rev_number":3332,"period_min":94.266639487325,"perigee_km":482.16762324036,"apogee_km":483.91996881567,"semimajor_km":6861.180796028,"source":"CELESTRAK","updated_at":"2026-09-20T09:00:43.704820Z"}}